Location: Buckenweiler
(49.0667°N, 10.2500°E)
Time: 09:18:58
(UTC+00:00)

Cosmos 1869 Rocket - Pass Details

Date: 18 January 2026
Orbit: 597 x 626 km, 82.5° (Epoch: 15 February)

Event Time Altitude Azimuth Distance (km) Brightness Sun altitude
Rises 06:24:52 0° 180° (S) 2,899 7.3 -6.8°
Reaches altitude 10° 06:27:06 10° 178° (S) 1,997 6.6 -6.4°
Maximum altitude 06:31:29 66° 96° (E) 688 4.1 -5.8°
Drops below altitude 10° 06:35:54 10° 15° (NNE) 2,010 6.1 -5.1°
Sets 06:38:09 0° 13° (NNE) 2,919 6.9 -4.8°
